Location: Demmingen
(48.6757°N, 10.4375°E)
Time: 09:56:04
(UTC+00:00)

Resurs 1-4 Rocket - Pass Details

Date: 23 May 2024
Orbit: 798 x 813 km, 98.7° (Epoch: 15 June)

Event Time Altitude Azimuth Distance (km) Brightness Sun altitude
Rises 00:25:24 0° 23° (NNE) 3,318 7.0 -18.9°
Reaches altitude 10° 00:28:04 10° 35° (NE) 2,382 5.7 -18.8°
Maximum altitude 00:32:36 29° 94° (E) 1,442 3.5 -18.6°
Enters shadow 00:36:01 15° 146° (SE) 2,030 3.9 -18.4°
